Location: Arbon
(43.0005°N, 0.7472°E)
Time: 19:47:08
(UTC+00:00)

Transit 2A - Visible Passes

Search period start: 19 June 2021 00:00
Search period end: 29 June 2021 00:00
Orbit: 600 x 958 km, 66.7° (Epoch: 18 June)

Date Brightness Start Highest point End Pass type
(mag) Time Alt. Az. Time Alt. Az. Time Alt. Az.
19 Jun 6.1 01:17:06 10° NNW 01:22:05 76° ENE 01:25:58 20° SE visible
19 Jun 7.6 03:01:51 10° WNW 03:04:47 15° WSW 03:06:21 14° SW visible
19 Jun 8.7 23:02:36 10° NNE 23:03:41 11° NE 23:04:47 10° NE visible
20 Jun 6.6 00:43:00 10° NNW 00:47:52 53° NE 00:51:26 20° SE visible
20 Jun 7.2 02:26:49 10° WNW 02:30:46 23° WSW 02:31:50 21° SW visible
21 Jun 7.2 00:08:59 10° NNW 00:13:35 37° NE 00:17:09 17° ESE visible
21 Jun 6.7 01:52:10 10° NW 01:56:42 33° WSW 01:57:34 31° SW visible
21 Jun 7.7 23:35:03 10° N 23:39:16 27° NE 23:43:02 13° ESE visible
22 Jun 6.3 01:17:44 10° NW 01:22:35 48° WSW 01:23:29 44° SW visible
22 Jun 8.0 23:01:12 10° N 23:04:53 20° NE 23:08:48 10° E visible
23 Jun 5.9 00:43:25 10° NW 00:48:27 70° WSW 00:49:30 55° S visible
23 Jun 8.3 22:27:31 10° N 22:30:26 15° NE 22:33:29 10° ENE visible
24 Jun 6.0 00:09:14 10° NNW 00:14:17 82° ENE 00:15:38 52° SE visible
24 Jun 7.9 01:54:11 10° WNW 01:56:04 14° W 01:56:04 14° W visible
24 Jun 8.5 21:54:15 10° NNE 21:55:56 11° NE 21:57:39 10° NE visible
24 Jun 6.4 23:35:07 10° NNW 23:40:03 57° NE 23:41:51 38° ESE visible
25 Jun 7.5 01:19:03 10° WNW 01:22:18 21° W 01:22:18 21° W visible
25 Jun 6.9 23:01:04 10° NNW 23:05:48 40° NE 23:08:08 27° ESE visible
26 Jun 7.0 00:44:22 10° NW 00:48:35 31° WSW 00:48:35 31° WSW visible
26 Jun 7.4 22:27:06 10° NNW 22:31:29 29° NE 22:34:29 18° E visible
27 Jun 6.4 00:09:54 10° NW 00:14:46 45° WSW 00:14:56 45° WSW visible
27 Jun 7.8 21:53:14 10° N 21:57:06 22° NE 22:00:53 11° E visible
27 Jun 6.0 23:35:34 10° NW 23:40:38 66° WSW 23:41:21 59° SSW visible
28 Jun 8.1 21:19:30 10° N 21:22:41 16° NE 21:26:00 10° E visible
28 Jun 5.9 23:01:21 10° NNW 23:06:28 87° ENE 23:07:48 53° SE visible
